This is the latest recevied weather packets stored in our database for station/object KI4NG. If no packets are shown the sender has not sent any weather packets the latest 10 day(s).
| Time | Temp. | Humidity | Pressure | Rain* | Wind** | Luminosity | Snow |
|---|---|---|---|---|---|---|---|
| 1787862283 | 29.44° C | 66% | 1016.6 hPa | 0 mm | - | 128 W/m² | - |
| 1787861983 | 28.89° C | 64% | 1016.7 hPa | 0 mm | - | 621 W/m² | - |
| 1787861677 | 28.89° C | 65% | 1016.7 hPa | 0 mm | - | 637 W/m² | - |
| 1787861375 | 28.89° C | 73% | 1016.6 hPa | 0 mm | - | 252 W/m² | - |
| 1787861071 | 27.22° C | 73% | 1016.5 hPa | 0 mm | - | 454 W/m² | - |
| 1787860769 | 27.78° C | 71% | 1016.6 hPa | 0 mm | - | 151 W/m² | - |
| 1787860465 | 28.33° C | 69% | 1016.8 hPa | 0 mm | - | 143 W/m² | - |
| 1787860164 | 28.89° C | 67% | 1016.7 hPa | 0 mm | - | 183 W/m² | - |
| 1787859860 | 28.33° C | 67% | 1016.6 hPa | 0 mm | - | 196 W/m² | - |
| 1787859555 | 28.89° C | 66% | 1016.9 hPa | 0 mm | - | 203 W/m² | - |
| 1787859249 | 28.89° C | 67% | 1016.7 hPa | 0 mm | - | 230 W/m² | - |
| 1787858946 | 28.89° C | 66% | 1016.6 hPa | 0 mm | - | 249 W/m² | - |
| 1787858642 | 28.33° C | 69% | 1016.7 hPa | 0 mm | - | 537 W/m² | - |
| 1787858336 | 28.89° C | 66% | 1016.7 hPa | 0 mm | - | 184 W/m² | - |
| 1787858031 | 28.89° C | 68% | 1016.7 hPa | 0 mm | - | 253 W/m² | - |
| 1787857727 | 28.89° C | 63% | 1016.9 hPa | 0 mm | - | 663 W/m² | - |
| 1787857423 | 28.89° C | 67% | 1016.9 hPa | 0 mm | - | 726 W/m² | - |
| 1787857120 | 28.89° C | 66% | 1016.8 hPa | 0 mm | - | 179 W/m² | - |
| 1787856815 | 29.44° C | 64% | 1017.1 hPa | 0 mm | - | 543 W/m² | - |
| 1787856510 | 28.33° C | 65% | 1016.9 hPa | 0 mm | - | 798 W/m² | - |
| 1787856205 | 28.33° C | 66% | 1017.1 hPa | 0 mm | - | 233 W/m² | - |
| 1787855900 | 28.89° C | 64% | 1017.2 hPa | 0 mm | - | 252 W/m² | - |
| 1787855595 | 29.44° C | 62% | 1017.2 hPa | 0 mm | - | 262 W/m² | - |
| 1787855291 | 30° C | 60% | 1017.1 hPa | 0 mm | - | 268 W/m² | - |
| 1787854986 | 28.89° C | 66% | 1017.3 hPa | 0 mm | - | 822 W/m² | - |
* Rain latest hour (hover to see other rain measurements)
** Current wind speed in m/s (hover to see current wind gust speed)